الصفحة الرئيسية
METAR-TAF:

METAR-TAF

مطار :

Grant County Airport

سيلفر سيتي, نيومكسيكو, الولايات المتحدة

دائرة عرض: 32-38N, خط طول: 108-09W, ارتفاع: 1659 متر

مراقبة الطقس الحالي

تاريخ ووقت الإصدار 16 دقيقة قبل الساعة 05:15UTC
ريح 10 عقدة من الغرب/الشمال الغربي
درجة الحرارة 4°درجة مئوية
الرطوبة 87%
ضغط 1020 hPa
الرؤية: 16.1 كم
سماء صافية

METAR: KSVC 220515Z AUTO 30010KT 10SM CLR 04/02 A3011 RMK AO2 T00370022

زمن: 22:31 (05:31 UTC)


TAF: مفقودة

أرصاد الطقس والتوقعات من أكثر من 4000 مطار (تقارير الطقس للمطار METAR والتنبؤ بالطقس بالمطارTAF).

المحطات المتاحة هي النقط الصفراء والحمراء على الخريطة.

حرك المؤشر فوق النقطة لمعرفة اسم المحطة.

ثم انقر لمعرفة أرصاد وتوقعات الطقس.

لتغيير الخارطة: اضغط على الأزرار الخضراء مع رمز الصليب الأسود للتكبير. على الزر الأخضر مع شرطة للتصغير، أو على الأسهم الخضراء للخرائط المجاورة.


METAR-TAF: